Location: Gull Harbor
(47.1000°N, 122.9000°W)
Time: 15:05:58
(UTC-07:00)

ISS - Pass Details

Date: 31 March 2019
Orbit: 408 x 410 km, 51.6° (Epoch: 26 April)

Event Time Altitude Azimuth Distance (km) Brightness Sun altitude
Rises 22:53:08 0° 293° (WNW) 2,339 1.0 -29.7°
Reaches altitude 10° 22:55:16 10° 287° (WNW) 1,474 -0.3 -29.9°
Enters shadow 22:55:25 11° 287° (WNW) 1,418 -0.4 -29.9°
